Weather in Kantemirovka

Russia / Voronezh Oblast     49°42′07″N   39°51′14″E
temp.,
°C
wind,
m/s
gust,
m/s
humid.,
%
clouds,
%
prec.,
mm/h
press.,
hPa
HPBL,
m
5 december, sun
sun500:000ene3484100 0.2 1015341
03:000ne4785100 0.2 1014405
06:00−1ne5985100 0.0 1014485
09:00−1ene51088100 0.0 1014468
12:00+1ene5781100 0.0 1013553
15:00+1nne5780100 0.0 1014522
18:00−1ne38875 0.0 1016216
21:00−2ne3683100 0.0 1017154
6 december, mon
mon600:00−2ne2483100 0.0 1018114
03:00−2ene2585100 0.0 1019148
06:00−2e3588100 0.0 1019200
09:00−1ese3688100 0.0 1020228
12:00+1se348084 0.0 1020331
15:00+1sse3484100 0.0 1020289
18:00−1se2295100 0.0 102237
21:00−1se369672 0.0 1022134
7 december, tue
tue700:000se4998100 0.0 1021266
03:00+1se5119776 0.0 1020280
06:00+2se61393100 0.0 1020309
09:00+3se71594100 1.3 1019340
12:00+6s51486100 0.0 1019468
15:00+5se41291100 0.0 1017367
18:00+4se61596100 0.0 1017343
21:00+5se81890100 0.0 1016395
8 december, wed
wed800:00+5sse81888100 0.0 1014419
03:00+4se61689100 0.0 1014420
06:00+4se61589100 0.0 1013417
09:00+3se61490100 0.0 1013443
12:00+5se61282100 0.0 1012547
15:00+5se5981100 0.0 1011579
18:00+4se51191100 0.0 1012319
21:00+4se51092100 0.0 1012270
9 december, thu
thu900:00+4se41093100 0.0 1012273
03:00+4ese3694100 0.0 1011123
06:00+4se4990100 0.0 1012250
09:00+5sse4992100 0.0 1013257
12:00+7s378686 0.0 1013349
15:00+7s51090100 0.0 1013462
18:00+7s499197 0.0 1013367
21:00+6s4998100 0.3 1014416